sat.trackr.live / text

‹ back to catalog

STARLINK-34000

NORAD 64180 · 2025-113L

PAYLOAD ACTIVE UNKNOWN

§ Identity

Operator
Country
US
Launch date
2025-05-28
Launch site
AFETR
Launch vehicle
Mass (kg)
RCS (m²)

Purposes: comms

External: N2YO · Heavens-Above · Gunter

§ Orbital elements

Epoch: 2026-09-20T13:24:37.722816Z

Period
94.01 min
Inclination
53.1566°
Eccentricity
0.0001167
Mean motion
15.31712061 rev/d
Perigee alt
469.9 km
Apogee alt
471.5 km
Semi-major
6,848.8 km
B*
5.7050e-4
RAAN
265.0491°
Arg perigee
78.9842°
Mean anomaly
281.1291°
Rev number
7,487

§ Raw data

STARLINK-340001 64180U 25113L   26263.55876994  .00017386  00000+0  57050-3 0  99972 64180  53.1566 265.0491 0001167  78.9842 281.1291 15.31712061 74874

JSON: /api/v1/satellites/64180 · /tle

For live sub-satellite position, see the globe view (requires WebGL).

§ Visibility from observer

Set your observer location to see the next 7 days of passes ≥ 10°. The values pass through the URL so the page stays shareable.

No JS? Fill the form by hand. The geolocation button needs JavaScript.